Weather in Kropotkin

Russia / Krasnodar Krai     45°26′04″N   40°34′33″E
temp.,
°C
wind,
m/s
gust,
m/s
humid.,
%
clouds,
%
prec.,
mm/h
press.,
hPa
HPBL,
m
9 december, thu
thu900:00+10sse1168100 0.0 101010
03:00+10n1162100 0.0 101210
06:00+10w2263100 0.0 101217
09:00+9wsw2379100 0.1 101554
12:00+12w357696 0.0 1016459
15:00+12wnw467552 0.0 1017738
18:00+9wnw3685100 0.0 1019192
21:00+9nw2283100 0.0 102171
10 december, fri
fri1000:00+9wsw228290 0.0 102254
03:00+9wsw1282100 0.0 102330
06:00+8wsw228789 0.0 102323
09:00+8s228632 0.0 102583
12:00+10s2172100 0.0 1024341
15:00+10ese117217 0.0 1024319
18:00+8e33825 0.0 102540
21:00+7e37894 0.0 1024125
11 december, sat
sat1100:00+6e49925 0.0 1024178
03:00+6ene510895 0.0 1023216
06:00+5ene611906 0.0 1023259
09:00+5e6128798 0.0 1023314
12:00+8e6873100 0.0 1023400
15:00+9e597095 0.0 1023466
18:00+7e61178100 0.0 1024326
21:00+6e610815 0.0 1025273
12 december, sun
sun1200:00+5ene598392 0.0 1025228
03:00+4ene6118223 0.0 1025259
06:00+4e611816 0.0 1025258
09:00+4e71375100 0.0 1025331
12:00+7e81462100 0.0 1024436
15:00+8e9155769 0.0 1023523
18:00+6e9176149 0.0 1023469
21:00+5e101763100 0.0 1022460
13 december, mon
mon1300:00+5e101765100 0.0 1022449
03:00+5e91668100 0.0 1021419
06:00+4e9167280 0.0 1020405
09:00+4e915730 0.0 1021446
12:00+7e91361100 0.0 1019538
15:00+7e91463100 0.0 1019543
18:00+5e91470100 0.0 1019539
21:00+6e81470100 0.0 1018564